Regional Weather Roundup
Issued by NWS

Home | Current Version | Previous Version | Graphics & Text | Print | Product List | Glossary On
Versions: 1 2 3 4 5 6 7 8 9 10 11 12 13 14 15 16 17 18 19 20 21 22 23 24 25 26 27 28 29 30 31 32 33 34 35 36 37 38 39 40 41 42 43 44 45 46 47 48 49 50
149
ASUS43 KLMK 200802
RWRKY
KENTUCKY REGIONAL WEATHER ROUNDUP
NATIONAL WEATHER SERVICE LOUISVILLE KY
300 AM EST MON FEB 20 2017

NOTE "FAIR" INDICATES FEW OR NO CLOUDS BELOW 12,000 FEET
WITH NO SIGNIFICANT WEATHER AND/OR OBSTRUCTIONS TO VISIBILITY.

KYZ001>023-026-027-061>063-070>075-200900-
WESTERN AND SOUTH CENTRAL KENTUCKY

CITY           SKY/WX    TMP DP  RH WIND       PRES   REMARKS
PADUCAH        FOG       45  43  93 SE5       30.08F VSB 1/4
HENDERSON      CLOUDY    43  39  87 E5        30.12F VSB 1/4
OWENSBORO      PTCLDY    42  42 100 CALM      30.14F FOG
HOPKINSVILLE   PTCLDY    50  50 100 E5        30.12S
BOWLING GREEN  FOG       43  42  97 CALM      30.16R VSB 1/4
GLASGOW        NOT AVBL
$$

KYZ024-025-028>034-038-045-046-053-200900-
NORTH CENTRAL KENTUCKY

CITY           SKY/WX    TMP DP  RH WIND       PRES   REMARKS
LOUISVILLE/SDF FOG       41  39  93 CALM      30.16S VSB 1/8
LOUISVILLE/LOU FOG       39  38  96 CALM      30.17S VSB 1/4
FORT KNOX      FOG       37  37 100 CALM      30.15R VSB 1/4
$$

KYZ035>037-039>044-047>052-055>060-089>105-200900-
NORTHEAST KENTUCKY

CITY           SKY/WX    TMP DP  RH WIND       PRES   REMARKS
LEXINGTON      CLEAR     36  35  96 SE5       30.17F FOG     WCI  32
COVINGTON      PTCLDY    39  39 100 CALM      30.17S FOG
FRANKFORT      FOG       37  34  89 CALM      30.16S VSB<1/4
$$

KYZ054-064>069-076>088-106>120-200900-
SOUTHEAST KENTUCKY

CITY           SKY/WX    TMP DP  RH WIND       PRES   REMARKS
JACKSON        CLEAR     47  43  86 E5        30.17F
LONDON         CLEAR     39  36  89 CALM      30.17S
SOMERSET       CLEAR     37  37 100 CALM      30.18S
MIDDLESBORO    FOG       37  37 100 CALM      30.21S VSB<1/4
MONTICELLO     FOG       35  35 100 W3        30.18S VSB 1/2
$$





USA.gov is the U.S. government's official web portal to all federal, state and local government web resources and services.